Time,TemperatureF,DewpointF,PressureIn,WindDirection,WindDirectionDegrees,WindSpeedMPH,WindSpeedGustMPH,Humidity,HourlyPrecipIn,Conditions,Clouds,dailyrainin,SolarRadiationWatts/m^2,SoftwareType,DateUTC
2013-07-12 00:02:00,50.0,47.0,-100.00,NE,53,1.0,4.0,89,0.00,,,0.00,0.000000,,2013-07-12 07:02:00,
2013-07-12 00:12:00,50.0,47.0,-100.00,NE,53,1.0,4.0,89,0.00,,,0.00,0.000000,,2013-07-12 07:12:00,
2013-07-12 00:22:00,50.0,47.0,-100.00,NE,53,1.0,4.0,89,0.00,,,0.00,0.000000,,2013-07-12 07:22:00,
2013-07-12 00:32:00,50.0,47.0,-100.00,NE,53,1.0,4.0,89,0.00,,,0.00,0.000000,,2013-07-12 07:32:00,
2013-07-12 01:01:00,51.0,48.0,-100.00,ENE,58,2.0,5.0,88,0.00,,,0.00,0.000000,,2013-07-12 08:01:00,
2013-07-12 01:11:00,51.0,48.0,-100.00,ENE,58,2.0,5.0,88,0.00,,,0.00,0.000000,,2013-07-12 08:11:00,
2013-07-12 01:21:00,51.0,48.0,-100.00,ENE,58,2.0,5.0,88,0.00,,,0.00,0.000000,,2013-07-12 08:21:00,
2013-07-12 01:32:00,51.0,48.0,-100.00,ENE,58,2.0,5.0,88,0.00,,,0.00,0.000000,,2013-07-12 08:32:00,
2013-07-12 01:53:00,51.0,47.0,-100.00,ENE,57,3.0,5.0,86,0.00,,,0.00,0.000000,,2013-07-12 08:53:00,
2013-07-12 02:02:00,51.0,47.0,-100.00,ENE,57,3.0,5.0,86,0.00,,,0.00,0.000000,,2013-07-12 09:02:00,
2013-07-12 02:12:00,51.0,47.0,-100.00,ENE,57,3.0,5.0,86,0.00,,,0.00,0.000000,,2013-07-12 09:12:00,
2013-07-12 02:22:00,51.0,47.0,-100.00,ENE,57,3.0,5.0,86,0.00,,,0.00,0.000000,,2013-07-12 09:22:00,
2013-07-12 02:32:00,51.0,47.0,-100.00,ENE,57,3.0,5.0,86,0.00,,,0.00,0.000000,,2013-07-12 09:32:00,
2013-07-12 02:33:00,51.0,47.0,-100.00,ENE,69,2.0,6.0,85,0.00,,,0.00,0.000000,,2013-07-12 09:33:00,
2013-07-12 03:01:00,51.0,47.0,-100.00,ENE,69,2.0,6.0,85,0.00,,,0.00,0.000000,,2013-07-12 10:01:00,
2013-07-12 03:11:00,51.0,47.0,-100.00,ENE,69,2.0,6.0,85,0.00,,,0.00,0.000000,,2013-07-12 10:11:00,
2013-07-12 03:22:00,51.0,47.0,-100.00,ENE,69,2.0,6.0,85,0.00,,,0.00,0.000000,,2013-07-12 10:22:00,
2013-07-12 04:02:00,50.0,45.0,-100.00,NE,53,3.0,8.0,84,0.00,,,0.00,0.000000,,2013-07-12 11:02:00,
2013-07-12 04:11:00,50.0,45.0,-100.00,NE,53,3.0,8.0,84,0.00,,,0.00,0.000000,,2013-07-12 11:11:00,
2013-07-12 04:22:00,50.0,45.0,-100.00,NE,53,3.0,8.0,84,0.00,,,0.00,0.000000,,2013-07-12 11:22:00,
2013-07-12 04:32:00,50.0,45.0,-100.00,NE,53,3.0,8.0,84,0.00,,,0.00,0.000000,,2013-07-12 11:32:00,
2013-07-12 04:53:00,50.0,46.0,-100.00,East,90,1.0,6.0,85,0.00,,,0.00,0.000000,,2013-07-12 11:53:00,
2013-07-12 05:01:00,50.0,46.0,-100.00,East,90,1.0,6.0,85,0.00,,,0.00,0.000000,,2013-07-12 12:01:00,
2013-07-12 05:11:00,50.0,46.0,-100.00,East,90,1.0,6.0,85,0.00,,,0.00,0.000000,,2013-07-12 12:11:00,
2013-07-12 05:22:00,50.0,46.0,-100.00,East,90,1.0,6.0,85,0.00,,,0.00,0.000000,,2013-07-12 12:22:00,
2013-07-12 05:32:00,50.0,46.0,-100.00,East,90,1.0,6.0,85,0.00,,,0.00,0.000000,,2013-07-12 12:32:00,
2013-07-12 05:52:00,51.0,46.0,-100.00,NE,55,2.0,5.0,84,0.00,,,0.00,1.000000,,2013-07-12 12:52:00,
2013-07-12 06:01:00,51.0,46.0,-100.00,NE,55,2.0,5.0,84,0.00,,,0.00,1.000000,,2013-07-12 13:01:00,
2013-07-12 06:12:00,51.0,46.0,-100.00,NE,55,2.0,5.0,84,0.00,,,0.00,1.000000,,2013-07-12 13:12:00,
2013-07-12 06:22:00,51.0,46.0,-100.00,NE,55,2.0,5.0,84,0.00,,,0.00,1.000000,,2013-07-12 13:22:00,
2013-07-12 06:32:00,51.0,46.0,-100.00,NE,55,2.0,5.0,84,0.00,,,0.00,1.000000,,2013-07-12 13:32:00,
2013-07-12 07:02:00,51.0,46.0,-100.00,ENE,68,2.0,5.0,84,0.00,,,0.00,14.000000,,2013-07-12 14:02:00,
2013-07-12 07:11:00,51.0,46.0,-100.00,ENE,68,2.0,5.0,84,0.00,,,0.00,14.000000,,2013-07-12 14:11:00,
2013-07-12 07:22:00,51.0,46.0,-100.00,ENE,68,2.0,5.0,84,0.00,,,0.00,14.000000,,2013-07-12 14:22:00,
2013-07-12 07:32:00,51.0,46.0,-100.00,ENE,68,2.0,5.0,84,0.00,,,0.00,14.000000,,2013-07-12 14:32:00,
2013-07-12 07:33:00,53.0,47.0,-100.00,North,2,0.0,5.0,80,0.00,,,0.00,71.000000,,2013-07-12 14:33:00,
2013-07-12 08:01:00,53.0,47.0,-100.00,North,2,0.0,5.0,80,0.00,,,0.00,71.000000,,2013-07-12 15:01:00,
2013-07-12 08:11:00,53.0,47.0,-100.00,North,2,0.0,5.0,80,0.00,,,0.00,71.000000,,2013-07-12 15:11:00,
2013-07-12 08:22:00,53.0,47.0,-100.00,North,2,0.0,5.0,80,0.00,,,0.00,71.000000,,2013-07-12 15:22:00,
2013-07-12 09:01:00,58.0,48.0,-100.00,East,84,1.0,4.0,70,0.00,,,0.00,235.000000,,2013-07-12 16:01:00,
2013-07-12 09:11:00,58.0,48.0,-100.00,East,84,1.0,4.0,70,0.00,,,0.00,235.000000,,2013-07-12 16:11:00,
2013-07-12 09:22:00,58.0,48.0,-100.00,East,84,1.0,4.0,70,0.00,,,0.00,235.000000,,2013-07-12 16:22:00,
2013-07-12 09:32:00,58.0,48.0,-100.00,East,84,1.0,4.0,70,0.00,,,0.00,235.000000,,2013-07-12 16:32:00,
2013-07-12 09:33:00,57.0,48.0,-100.00,West,272,3.0,5.0,73,0.00,,,-99.99,264.000000,,2013-07-12 16:33:00,
2013-07-12 09:58:00,57.0,48.0,-100.00,West,272,3.0,5.0,73,0.00,,,-99.99,264.000000,,2013-07-12 16:58:00,
2013-07-12 10:04:00,57.0,48.0,-100.00,West,272,3.0,5.0,73,0.00,,,-99.99,264.000000,,2013-07-12 17:04:00,
2013-07-12 10:22:00,57.0,48.0,-100.00,West,272,3.0,5.0,73,0.00,,,-99.99,264.000000,,2013-07-12 17:22:00,
2013-07-12 10:33:00,62.0,51.0,-100.00,WSW,238,2.0,6.0,66,0.00,,,0.00,474.000000,,2013-07-12 17:33:00,
2013-07-12 10:55:00,62.0,51.0,-100.00,WSW,238,2.0,6.0,66,0.00,,,0.00,474.000000,,2013-07-12 17:55:00,
2013-07-12 11:04:00,62.0,51.0,-100.00,WSW,238,2.0,6.0,66,0.00,,,0.00,474.000000,,2013-07-12 18:04:00,
2013-07-12 11:12:00,62.0,51.0,-100.00,WSW,238,2.0,6.0,66,0.00,,,0.00,474.000000,,2013-07-12 18:12:00,
2013-07-12 11:23:00,62.0,51.0,-100.00,WSW,238,2.0,6.0,66,0.00,,,0.00,474.000000,,2013-07-12 18:23:00,
2013-07-12 11:56:00,62.0,51.0,-100.00,West,268,2.0,7.0,66,0.00,,,0.00,597.000000,,2013-07-12 18:56:00,
2013-07-12 12:03:00,62.0,51.0,-100.00,West,268,2.0,7.0,66,0.00,,,0.00,597.000000,,2013-07-12 19:03:00,
2013-07-12 12:13:00,62.0,51.0,-100.00,West,268,2.0,7.0,66,0.00,,,0.00,597.000000,,2013-07-12 19:13:00,
2013-07-12 12:22:00,62.0,51.0,-100.00,West,268,2.0,7.0,66,0.00,,,0.00,597.000000,,2013-07-12 19:22:00,
2013-07-12 12:32:00,62.0,51.0,-100.00,West,268,2.0,7.0,66,0.00,,,0.00,597.000000,,2013-07-12 19:32:00,
2013-07-12 13:02:00,63.0,51.0,-100.00,SSW,202,3.0,9.0,65,0.00,,,0.00,498.000000,,2013-07-12 20:02:00,
2013-07-12 13:12:00,63.0,51.0,-100.00,SSW,202,3.0,9.0,65,0.00,,,0.00,498.000000,,2013-07-12 20:12:00,
2013-07-12 13:22:00,63.0,51.0,-100.00,SSW,202,3.0,9.0,65,0.00,,,0.00,498.000000,,2013-07-12 20:22:00,
2013-07-12 13:33:00,66.0,53.0,-100.00,SW,234,3.0,11.0,62,-99.99,,,0.00,692.000000,,2013-07-12 20:33:00,
2013-07-12 15:14:00,67.0,51.0,-100.00,SW,226,3.0,11.0,57,-99.99,,,0.00,816.000000,,2013-07-12 22:14:00,
2013-07-12 15:22:00,67.0,51.0,-100.00,SW,226,3.0,11.0,57,-99.99,,,0.00,816.000000,,2013-07-12 22:22:00,
2013-07-12 15:32:00,67.0,51.0,-100.00,SW,226,3.0,11.0,57,-99.99,,,0.00,816.000000,,2013-07-12 22:32:00,
2013-07-12 16:03:00,67.0,45.0,-100.00,West,259,5.0,14.0,45,-99.99,,,0.00,716.000000,,2013-07-12 23:03:00,
2013-07-12 16:12:00,67.0,45.0,-100.00,West,259,5.0,14.0,45,-99.99,,,0.00,716.000000,,2013-07-12 23:12:00,
2013-07-12 16:32:00,67.0,45.0,-100.00,West,259,5.0,14.0,45,-99.99,,,0.00,716.000000,,2013-07-12 23:32:00,
2013-07-12 16:57:00,67.0,47.0,-100.00,West,272,6.0,12.0,48,0.00,,,0.00,747.000000,,2013-07-12 23:57:00,
2013-07-12 17:03:00,67.0,47.0,-100.00,West,272,6.0,12.0,48,0.00,,,0.00,747.000000,,2013-07-13 00:03:00,
2013-07-12 17:14:00,67.0,47.0,-100.00,West,272,6.0,12.0,48,0.00,,,0.00,747.000000,,2013-07-13 00:14:00,
2013-07-12 17:23:00,67.0,47.0,-100.00,West,272,6.0,12.0,48,0.00,,,0.00,747.000000,,2013-07-13 00:23:00,
2013-07-12 17:32:00,67.0,47.0,-100.00,West,272,6.0,12.0,48,0.00,,,0.00,747.000000,,2013-07-13 00:32:00,
2013-07-12 18:02:00,67.0,46.0,-100.00,WNW,296,3.0,12.0,46,0.00,,,0.00,597.000000,,2013-07-13 01:02:00,
2013-07-12 18:11:00,67.0,46.0,-100.00,WNW,296,3.0,12.0,46,0.00,,,0.00,597.000000,,2013-07-13 01:11:00,
2013-07-12 18:22:00,67.0,46.0,-100.00,WNW,296,3.0,12.0,46,0.00,,,0.00,597.000000,,2013-07-13 01:22:00,
2013-07-12 18:32:00,67.0,46.0,-100.00,WNW,296,3.0,12.0,46,0.00,,,0.00,597.000000,,2013-07-13 01:32:00,
2013-07-12 18:56:00,66.0,45.0,-100.00,West,259,4.0,10.0,47,0.00,,,0.00,445.000000,,2013-07-13 01:56:00,
2013-07-12 19:04:00,66.0,45.0,-100.00,West,259,4.0,10.0,47,0.00,,,0.00,445.000000,,2013-07-13 02:04:00,
2013-07-12 19:13:00,66.0,45.0,-100.00,West,259,4.0,10.0,47,0.00,,,0.00,445.000000,,2013-07-13 02:13:00,
2013-07-12 19:22:00,66.0,45.0,-100.00,West,259,4.0,10.0,47,0.00,,,0.00,445.000000,,2013-07-13 02:22:00,
2013-07-12 19:55:00,62.0,45.0,-100.00,West,263,4.0,9.0,53,-99.99,,,0.00,272.000000,,2013-07-13 02:55:00,
2013-07-12 20:04:00,62.0,45.0,-100.00,West,263,4.0,9.0,53,-99.99,,,0.00,272.000000,,2013-07-13 03:04:00,
2013-07-12 20:12:00,62.0,45.0,-100.00,West,263,4.0,9.0,53,-99.99,,,0.00,272.000000,,2013-07-13 03:12:00,
2013-07-12 20:23:00,62.0,45.0,-100.00,West,263,4.0,9.0,53,-99.99,,,0.00,272.000000,,2013-07-13 03:23:00,
2013-07-12 20:57:00,57.0,47.0,-100.00,West,264,4.0,8.0,70,0.00,,,0.00,32.000000,,2013-07-13 03:57:00,
2013-07-12 21:01:00,57.0,47.0,-100.00,West,264,4.0,8.0,70,0.00,,,0.00,32.000000,,2013-07-13 04:01:00,
2013-07-12 21:11:00,57.0,47.0,-100.00,West,264,4.0,8.0,70,0.00,,,0.00,32.000000,,2013-07-13 04:11:00,
2013-07-12 21:22:00,57.0,47.0,-100.00,West,264,4.0,8.0,70,0.00,,,0.00,32.000000,,2013-07-13 04:22:00,
2013-07-12 21:32:00,57.0,47.0,-100.00,West,264,4.0,8.0,70,0.00,,,0.00,32.000000,,2013-07-13 04:32:00,
2013-07-12 22:01:00,53.0,49.0,-100.00,West,262,1.0,5.0,85,0.00,,,0.00,9.000000,,2013-07-13 05:01:00,
2013-07-12 22:11:00,53.0,49.0,-100.00,West,262,1.0,5.0,85,0.00,,,0.00,9.000000,,2013-07-13 05:11:00,
2013-07-12 22:21:00,53.0,49.0,-100.00,West,262,1.0,5.0,85,0.00,,,0.00,9.000000,,2013-07-13 05:21:00,
2013-07-12 22:32:00,53.0,49.0,-100.00,West,262,1.0,5.0,85,0.00,,,0.00,9.000000,,2013-07-13 05:32:00,
2013-07-12 22:52:00,51.0,48.0,-100.00,SE,145,0.0,2.0,90,0.00,,,0.00,0.000000,,2013-07-13 05:52:00,
2013-07-12 23:01:00,51.0,48.0,-100.00,SE,145,0.0,2.0,90,0.00,,,0.00,0.000000,,2013-07-13 06:01:00,
2013-07-12 23:11:00,51.0,48.0,-100.00,SE,145,0.0,2.0,90,0.00,,,0.00,0.000000,,2013-07-13 06:11:00,
2013-07-12 23:22:00,51.0,48.0,-100.00,SE,145,0.0,2.0,90,0.00,,,0.00,0.000000,,2013-07-13 06:22:00,
2013-07-12 23:32:00,51.0,48.0,-100.00,SE,145,0.0,2.0,90,0.00,,,0.00,0.000000,,2013-07-13 06:32:00,
2013-07-12 23:33:00,51.0,49.0,-100.00,SE,146,0.0,1.0,92,0.00,,,0.00,0.000000,,2013-07-13 06:33:00,
2013-07-12 23:52:00,51.0,49.0,-100.00,SE,146,0.0,1.0,92,0.00,,,0.00,0.000000,,2013-07-13 06:52:00,